{"data":{"norad_id":60913,"intl_designator":"2024-154L","name":"STARLINK-11273 [DTC]","alt_names":[],"object_type":"PAYLOAD","status":"ACTIVE","operator":null,"country":"US","launch_date":"2024-08-31","launch_site_code":"AFETR","launch_vehicle":null,"mission":null,"orbit_class":"UNKNOWN","rcs_meters":null,"size_class":null,"mass_kg":null,"dimensions":null,"purposes":["comms"],"wikipedia_slug":null,"has_3d_model":false,"image_url":null,"decayed_at":null,"tle_current":{"epoch":"2026-09-21T07:59:52.070784Z","epoch_age_seconds":116575,"freshness":"FRESH","line1":"1 60913U 24154L   26264.33324156 -.00000311  00000+0  22922-5 0  9999","line2":"2 60913  53.1606 246.7213 0001206  84.3875 275.7281 15.69706177119238","mean_motion":15.69706177,"eccentricity":0.0001206,"inclination_deg":53.1606,"raan_deg":246.7213,"arg_perigee_deg":84.3875,"mean_anomaly_deg":275.7281,"bstar":2.2922e-6,"rev_number":11923,"period_min":91.73691364024,"perigee_km":358.92510271695,"apogee_km":360.55027809228,"semimajor_km":6737.8746904046,"source":"CELESTRAK","updated_at":"2026-09-22T09:00:49.284863Z"}}}